TimeCDT,TemperatureF,Dew PointF,Humidity,Sea Level PressureIn,VisibilityMPH,Wind Direction,Wind SpeedMPH,Gust SpeedMPH,PrecipitationIn,Events,Conditions,WindDirDegrees,DateUTC
12:15 AM,71.8,70.2,95,29.93,5.0,Calm,Calm,-,N/A,,Scattered Clouds,0,2014-05-11 05:15:00
12:35 AM,72.0,70.3,95,29.94,5.0,Calm,Calm,-,N/A,,Mostly Cloudy,0,2014-05-11 05:35:00
12:55 AM,72.7,71.1,95,29.94,7.0,Calm,Calm,-,N/A,,Overcast,0,2014-05-11 05:55:00
1:15 AM,73.2,71.6,95,29.94,5.0,ESE,3.5,-,N/A,,Overcast,120,2014-05-11 06:15:00
1:35 AM,73.6,71.8,94,29.94,7.0,ESE,3.5,-,N/A,,Overcast,120,2014-05-11 06:35:00
1:55 AM,73.9,72.0,93,29.93,7.0,Calm,Calm,-,N/A,,Overcast,0,2014-05-11 06:55:00
2:15 AM,74.3,71.8,92,29.93,7.0,ESE,3.5,-,N/A,,Overcast,120,2014-05-11 07:15:00
2:35 AM,74.3,71.6,91,29.93,10.0,ESE,3.5,-,N/A,,Overcast,120,2014-05-11 07:35:00
2:55 AM,74.3,71.6,91,29.93,10.0,Calm,Calm,-,N/A,,Overcast,0,2014-05-11 07:55:00
3:15 AM,74.1,71.6,92,29.93,10.0,Calm,Calm,-,N/A,,Overcast,0,2014-05-11 08:15:00
3:35 AM,73.0,70.9,93,29.93,7.0,Calm,Calm,-,N/A,,Scattered Clouds,0,2014-05-11 08:35:00
3:55 AM,72.5,70.7,94,29.93,7.0,Calm,Calm,-,N/A,,Scattered Clouds,0,2014-05-11 08:55:00
4:15 AM,71.8,70.2,95,29.93,5.0,Calm,Calm,-,N/A,,Scattered Clouds,0,2014-05-11 09:15:00
4:35 AM,71.2,69.8,95,29.93,4.0,Calm,Calm,-,N/A,,Mostly Cloudy,0,2014-05-11 09:35:00
4:55 AM,70.7,69.3,95,29.93,2.0,Calm,Calm,-,N/A,,Mostly Cloudy,0,2014-05-11 09:55:00
5:15 AM,70.9,69.8,96,29.93,3.0,Calm,Calm,-,N/A,,Mostly Cloudy,0,2014-05-11 10:15:00
5:35 AM,71.6,70.3,96,29.93,3.0,ESE,3.5,-,N/A,,Overcast,110,2014-05-11 10:35:00
5:55 AM,72.0,70.7,96,29.94,4.0,ESE,3.5,-,N/A,,Overcast,120,2014-05-11 10:55:00
6:15 AM,72.1,70.7,95,29.94,4.0,Calm,Calm,-,N/A,,Overcast,0,2014-05-11 11:15:00
6:35 AM,72.5,70.7,94,29.95,3.0,East,3.5,-,N/A,,Overcast,100,2014-05-11 11:35:00
6:55 AM,72.7,70.9,94,29.95,3.0,Calm,Calm,-,N/A,,Overcast,0,2014-05-11 11:55:00
7:15 AM,72.9,71.1,94,29.96,4.0,ESE,3.5,-,N/A,,Overcast,110,2014-05-11 12:15:00
7:35 AM,73.4,71.2,93,29.96,4.0,Calm,Calm,-,N/A,,Overcast,0,2014-05-11 12:35:00
7:55 AM,74.1,71.6,92,29.96,5.0,East,4.6,-,N/A,,Overcast,90,2014-05-11 12:55:00
8:15 AM,75.2,71.8,89,29.97,7.0,ESE,4.6,-,N/A,,Mostly Cloudy,110,2014-05-11 13:15:00
8:35 AM,75.4,71.6,88,29.97,7.0,ESE,5.8,-,N/A,,Mostly Cloudy,120,2014-05-11 13:35:00
8:55 AM,76.6,71.6,84,29.97,10.0,SE,5.8,-,N/A,,Overcast,140,2014-05-11 13:55:00
9:15 AM,77.9,72.0,82,29.98,10.0,ESE,5.8,-,N/A,,Overcast,120,2014-05-11 14:15:00
9:55 AM,79.0,72.1,79,29.98,10.0,SE,5.8,-,N/A,,Overcast,140,2014-05-11 14:55:00
10:15 AM,79.2,72.5,80,29.98,10.0,SE,5.8,-,N/A,,Overcast,140,2014-05-11 15:15:00
10:35 AM,81.1,72.5,75,29.97,10.0,SSE,9.2,-,N/A,,Overcast,150,2014-05-11 15:35:00
10:55 AM,81.3,72.5,74,29.97,10.0,SSE,5.8,-,N/A,,Overcast,150,2014-05-11 15:55:00
11:15 AM,83.3,73.2,71,29.97,10.0,South,8.1,-,N/A,,Mostly Cloudy,180,2014-05-11 16:15:00
11:35 AM,82.8,72.7,71,29.97,10.0,SE,8.1,-,N/A,,Mostly Cloudy,140,2014-05-11 16:35:00
11:55 AM,85.6,72.9,65,29.96,10.0,SE,11.5,17.3,N/A,,Mostly Cloudy,130,2014-05-11 16:55:00
12:15 PM,85.5,72.7,65,29.95,10.0,SE,10.4,17.3,N/A,,Mostly Cloudy,140,2014-05-11 17:15:00
12:35 PM,82.8,72.5,71,29.95,10.0,SSE,8.1,-,N/A,Rain,Light Rain,160,2014-05-11 17:35:00
12:55 PM,86.2,72.0,62,29.94,10.0,SSE,12.7,18.4,N/A,,Scattered Clouds,160,2014-05-11 17:55:00
1:15 PM,85.5,72.3,65,29.93,10.0,SSE,6.9,-,N/A,,Scattered Clouds,160,2014-05-11 18:15:00
1:35 PM,86.2,72.0,62,29.92,10.0,South,8.1,16.1,N/A,,Scattered Clouds,170,2014-05-11 18:35:00
1:55 PM,86.5,72.7,63,29.91,10.0,South,8.1,-,N/A,,Mostly Cloudy,170,2014-05-11 18:55:00
2:15 PM,87.4,73.2,63,29.90,10.0,SE,8.1,16.1,N/A,,Mostly Cloudy,130,2014-05-11 19:15:00
2:35 PM,86.0,73.0,65,29.90,10.0,ESE,11.5,18.4,N/A,,Scattered Clouds,120,2014-05-11 19:35:00
2:55 PM,84.7,73.6,69,29.90,10.0,SE,5.8,16.1,N/A,,Scattered Clouds,140,2014-05-11 19:55:00
3:15 PM,86.7,73.8,65,29.88,10.0,SSE,5.8,-,N/A,,Scattered Clouds,150,2014-05-11 20:15:00
3:35 PM,86.2,72.7,64,29.88,10.0,SSE,11.5,17.3,N/A,,Mostly Cloudy,150,2014-05-11 20:35:00
3:55 PM,86.5,72.5,63,29.87,10.0,SSE,12.7,18.4,N/A,,Scattered Clouds,160,2014-05-11 20:55:00
4:15 PM,86.7,73.2,64,29.86,10.0,SSE,8.1,19.6,N/A,,Clear,160,2014-05-11 21:15:00
4:35 PM,84.7,74.1,70,29.86,10.0,South,6.9,-,N/A,,Scattered Clouds,170,2014-05-11 21:35:00
4:55 PM,83.7,73.9,72,29.87,10.0,South,8.1,-,N/A,,Scattered Clouds,170,2014-05-11 21:55:00
5:15 PM,84.7,73.6,69,29.86,10.0,SSE,10.4,17.3,N/A,,Scattered Clouds,160,2014-05-11 22:15:00
5:35 PM,83.7,73.0,70,29.87,10.0,SSE,10.4,18.4,N/A,,Scattered Clouds,160,2014-05-11 22:35:00
5:55 PM,85.1,73.6,68,29.88,10.0,South,10.4,-,N/A,,Mostly Cloudy,170,2014-05-11 22:55:00
6:15 PM,80.4,75.0,84,29.89,5.0,SSE,4.6,-,N/A,Rain,Light Rain,160,2014-05-11 23:15:00
6:35 PM,75.6,70.7,85,29.89,4.0,ESE,9.2,21.9,N/A,Rain,Light Rain,110,2014-05-11 23:35:00
6:55 PM,74.3,70.9,89,29.90,1.8,SE,9.2,23.0,N/A,Rain-Thunderstorm,Light Thunderstorms and Rain,130,2014-05-11 23:55:00
7:15 PM,74.5,72.3,93,29.89,7.0,East,4.6,-,N/A,Rain,Rain,90,2014-05-12 00:15:00
7:35 PM,74.8,73.2,95,29.90,2.5,ESE,3.5,-,N/A,Rain,Heavy Rain,110,2014-05-12 00:35:00
7:55 PM,74.7,73.2,95,29.90,5.0,East,3.5,-,N/A,,Overcast,90,2014-05-12 00:55:00
8:15 PM,74.5,72.7,94,29.91,10.0,East,4.6,-,N/A,Thunderstorm,Overcast,90,2014-05-12 01:15:00
8:35 PM,74.3,72.7,95,29.91,10.0,East,3.5,-,N/A,,Overcast,90,2014-05-12 01:35:00
8:55 PM,74.1,72.5,95,29.92,10.0,Calm,Calm,-,N/A,Thunderstorm,Overcast,0,2014-05-12 01:55:00
9:15 PM,74.8,73.0,94,29.90,10.0,South,4.6,-,N/A,,Mostly Cloudy,170,2014-05-12 02:15:00
9:35 PM,76.1,73.6,92,29.91,10.0,SSE,4.6,-,N/A,,Clear,150,2014-05-12 02:35:00
9:55 PM,75.7,73.6,93,29.93,7.0,SSE,4.6,-,N/A,,Scattered Clouds,160,2014-05-12 02:55:00
10:15 PM,75.7,73.6,93,29.93,7.0,SSE,5.8,-,0.01,,Mostly Cloudy,160,2014-05-12 03:15:00
10:35 PM,76.1,73.6,92,29.93,7.0,South,10.4,16.1,0.01,,Mostly Cloudy,170,2014-05-12 03:35:00
10:55 PM,76.1,73.6,92,29.92,7.0,South,8.1,-,0.01,,Mostly Cloudy,170,2014-05-12 03:55:00
11:15 PM,76.1,73.4,91,29.92,7.0,SSE,6.9,-,N/A,,Scattered Clouds,160,2014-05-12 04:15:00
11:35 PM,76.1,73.4,91,29.93,10.0,SSE,5.8,-,N/A,,Mostly Cloudy,160,2014-05-12 04:35:00
11:55 PM,76.1,73.4,91,29.92,10.0,SSE,9.2,-,N/A,,Mostly Cloudy,160,2014-05-12 04:55:00